Location: Arboucave
(43.6130°N, 0.4343°W)
Time: 14:48:20
(UTC+00:00)

Tiangong - Visible Passes

Search period start: 24 January 2026 00:00
Search period end: 03 February 2026 00:00
Orbit: 378 x 392 km, 41.5° (Epoch: 24 January)

Date Brightness Start Highest point End Pass type
(mag) Time Alt. Az. Time Alt. Az. Time Alt. Az.
24 Jan -1.9 05:42:11 56° SSW 05:42:26 59° S 05:45:35 10° E visible
25 Jan 1.1 04:45:22 14° E 04:45:22 14° E 04:45:57 10° E visible
25 Jan -1.4 06:17:35 19° WSW 06:19:31 45° SSW 06:22:35 10° ESE visible
26 Jan -0.9 05:20:42 39° SE 05:20:42 39° SE 05:23:00 10° ESE visible
27 Jan -1.1 05:56:00 29° SW 05:56:47 34° SSW 05:59:42 10° SE visible
28 Jan 0.5 04:59:03 19° SE 04:59:03 19° SE 05:00:07 10° ESE visible
28 Jan 0.1 06:31:25 10° WSW 06:33:28 16° SSW 06:35:31 10° SSE visible
29 Jan -0.4 05:34:19 23° S 05:34:19 23° S 05:36:24 10° SSE visible
